K3HW Weather Reports


time (UTC)temp
F
wind
direction
speed
knots
gust
knots
rain 1hr
in
rain 24hr
in
rain mn
in
humidity
%
barometer
mb
20260505200435 82 232 5.2 8.7 0.00 0.00 0.00 34 1012.2
20260505195930 81 219 3.5 3.5 0.00 0.00 0.00 34 1012.3
20260505195428 81 155 3.5 3.5 0.00 0.00 0.00 35 1012.4
20260505194925 82 267 3.5 6.1 0.00 0.00 0.00 34 1012.3
20260505194422 82 204 4.3 6.1 0.00 0.00 0.00 34 1012.4
20260505193922 82 148 2.6 3.5 0.00 0.00 0.00 33 1012.4
20260505193420 82 239 4.3 7.8 0.00 0.00 0.00 33 1012.5
20260505192918 82 284 1.7 3.5 0.00 0.00 0.00 34 1012.4
20260505192416 81 176 4.3 6.1 0.00 0.00 0.00 32 1012.6
20260505191913 82 177 7.0 9.6 0.00 0.00 0.00 31 1012.6
20260505191412 82 186 2.6 5.2 0.00 0.00 0.00 32 1012.8
20260505190908 82 13 2.6 2.6 0.00 0.00 0.00 35 1012.6
20260505190403 82 173 4.3 7.0 0.00 0.00 0.00 33 1012.6
20260505185859 82 319 3.5 5.2 0.00 0.00 0.00 38 1012.8
20260505185356 81 196 7.0 8.7 0.00 0.00 0.00 32 1013.0
20260505184852 81 194 4.3 6.1 0.00 0.00 0.00 36 1013.1
20260505184349 81 7 3.5 3.5 0.00 0.00 0.00 36 1013.1
20260505183846 81 138 2.6 2.6 0.00 0.00 0.00 34 1013.1
20260505183343 81 229 3.5 6.1 0.00 0.00 0.00 38 1013.2
20260505182840 81 301 3.5 5.2 0.00 0.00 0.00 35 1013.2
20260505182337 81 217 3.5 6.1 0.00 0.00 0.00 34 1013.0
20260505181833 81 226 1.7 3.5 0.00 0.00 0.00 38 1013.0
20260505181331 81 227 1.7 1.7 0.00 0.00 0.00 36 1013.4
20260505180827 82 295 5.2 7.0 0.00 0.00 0.00 36 1013.3
20260505180324 81 165 3.5 7.8 0.00 0.00 0.00 38 1013.4
20260505175820 81 296 3.5 3.5 0.00 0.00 0.00 38 1013.4
20260505175317 81 62 1.7 2.6 0.00 0.00 0.00 37 1013.5
20260505174813 81 57 2.6 3.5 0.00 0.00 0.00 37 1013.4
20260505174311 81 195 3.5 5.2 0.00 0.00 0.00 40 1013.5
20260505173806 81 29 1.7 1.7 0.00 0.00 0.00 41 1013.4
20260505173303 81 62 1.7 2.6 0.00 0.00 0.00 39 1013.3
20260505172800 81 211 5.2 7.8 0.00 0.00 0.00 40 1013.3
20260505172257 81 337 3.5 6.1 0.00 0.00 0.00 43 1013.5
20260505171752 82 194 3.5 5.2 0.00 0.00 0.00 42 1013.5
20260505171249 81 161 1.7 2.6 0.00 0.00 0.00 41 1013.5
20260505170746 81 277 2.6 3.5 0.00 0.00 0.00 41 1013.5
20260505170244 81 199 4.3 7.8 0.00 0.00 0.00 39 1013.6
20260505165744 82 110 2.6 3.5 0.00 0.00 0.00 41 1013.7
20260505165240 81 271 3.5 5.2 0.00 0.00 0.00 39 1013.7
20260505164736 81 357 1.7 2.6 0.00 0.00 0.00 40 1013.6
20260505164233 81 283 2.6 3.5 0.00 0.00 0.00 40 1013.9
20260505163731 81 252 1.7 2.6 0.00 0.00 0.00 39 1014.0
20260505163230 82 324 1.7 3.5 0.00 0.00 0.00 42 1013.9
20260505162726 81 29 1.7 1.7 0.00 0.00 0.00 42 1013.7
20260505162223 80 0 3.5 7.8 0.00 0.00 0.00 41 1013.9
20260505161720 81 351 2.6 2.6 0.00 0.00 0.00 43 1013.9
20260505161218 81 340 0.9 0.9 0.00 0.00 0.00 42 1014.0
20260505160715 81 47 1.7 1.7 0.00 0.00 0.00 40 1014.0
20260505160213 80 29 0.9 0.9 0.00 0.00 0.00 41 1014.1
20260505153152 80 355 3.5 6.1 0.00 0.00 0.00 42 1014.2
20260505152649 80 267 1.7 1.7 0.00 0.00 0.00 43 1014.3
20260505152144 79 207 2.6 2.6 0.00 0.00 0.00 43 1014.1
20260505151640 79 28 0.9 1.7 0.00 0.00 0.00 44 1014.4
20260505151137 79 272 4.3 5.2 0.00 0.00 0.00 45 1014.2
20260505150633 78 36 0.9 0.9 0.00 0.00 0.00 45 1014.2
20260505150131 77 353 2.6 3.5 0.00 0.00 0.00 46 1014.2
20260505140559 72 134 1.7 1.7 0.00 0.00 0.00 51 1014.6
20260505125012 67 30 0.9 0.9 0.00 0.00 0.00 59 1015.1
20260505124509 66 56 0.0 0.0 0.00 0.00 0.00 59 1014.9
20260505124005 66 50 0.9 1.7 0.00 0.00 0.00 59 1015.1
20260505123502 66 134 1.7 2.6 0.00 0.00 0.00 59 1015.2
20260505122958 66 6 1.7 1.7 0.00 0.00 0.00 60 1015.1
20260505122455 65 160 1.7 2.6 0.00 0.00 0.00 60 1014.9
20260505121952 65 10 0.0 0.9 0.00 0.00 0.00 60 1014.7
20260505121449 65 42 0.9 0.9 0.00 0.00 0.00 60 1014.6
20260505120945 64 39 0.9 0.9 0.00 0.00 0.00 61 1014.7
20260505120442 64 21 0.9 0.9 0.00 0.00 0.00 61 1014.6
20260505115941 64 159 1.7 2.6 0.00 0.00 0.00 61 1014.7
20260505115437 64 39 0.0 0.0 0.00 0.00 0.00 62 1014.7
20260505114935 63 50 0.9 0.9 0.00 0.00 0.00 62 1014.5
20260505114431 63 24 0.0 0.9 0.00 0.00 0.00 62 1014.7
20260505113928 63 32 0.9 0.9 0.00 0.00 0.00 63 1014.6
20260505113425 63 29 0.9 0.9 0.00 0.00 0.00 63 1014.8
20260505112920 63 34 0.0 0.0 0.00 0.00 0.00 64 1014.5
20260505112418 62 39 0.0 0.0 0.00 0.00 0.00 64 1014.4
20260505111914 62 38 0.0 0.0 0.00 0.00 0.00 66 1014.6
20260505111409 61 37 0.0 0.0 0.00 0.00 0.00 66 1014.4
20260505110905 60 47 0.0 0.0 0.00 0.00 0.00 67 1014.5
20260505110402 58 37 0.0 0.0 0.00 0.00 0.00 71 1014.3
20260505101833 54 39 0.0 0.0 0.00 0.00 0.00 76 1014.2
20260505101328 54 37 0.0 0.0 0.00 0.00 0.00 76 1014.1
20260505100824 54 38 0.0 0.0 0.00 0.00 0.00 76 1014.1
20260505100321 54 43 0.0 0.0 0.00 0.00 0.00 76 1014.1
20260505095816 55 40 0.0 0.0 0.00 0.00 0.00 75 1013.7
20260505095314 55 42 0.0 0.0 0.00 0.00 0.00 74 1014.0
20260505094810 56 36 0.0 0.0 0.00 0.00 0.00 73 1014.0
20260505094307 56 37 0.0 0.0 0.00 0.00 0.00 72 1013.9
20260505093802 56 39 0.0 0.0 0.00 0.00 0.00 72 1013.7
20260505093300 57 37 0.0 0.0 0.00 0.00 0.00 71 1013.6
20260505092757 57 39 0.0 0.0 0.00 0.00 0.00 71 1013.9
20260505092255 57 39 0.0 0.0 0.00 0.00 0.00 70 1013.5
20260505091752 57 37 0.0 0.0 0.00 0.00 0.00 70 1013.7
20260505091250 57 35 0.0 0.0 0.00 0.00 0.00 70 1013.7
20260505090748 57 36 0.0 0.0 0.00 0.00 0.00 70 1013.7
20260505090246 57 36 0.0 0.0 0.00 0.00 0.00 69 1013.7
20260505085743 57 38 0.0 0.0 0.00 0.00 0.00 69 1013.6
20260505085241 58 39 0.0 0.0 0.00 0.00 0.00 68 1013.4
20260505084738 58 42 0.0 0.0 0.00 0.00 0.00 68 1013.4
20260505084238 58 49 0.0 0.0 0.00 0.00 0.00 67 1013.2
20260505083734 58 37 0.0 0.0 0.00 0.00 0.00 67 1013.6
20260505083230 59 37 0.0 0.0 0.00 0.00 0.00 67 1013.7
20260505082726 59 36 0.0 0.0 0.00 0.00 0.00 66 1013.7
20260505082224 59 39 0.0 0.9 0.00 0.00 0.00 66 1013.9
20260505081719 59 39 0.0 0.0 0.00 0.00 0.00 66 1013.5
20260505081217 59 41 0.0 0.0 0.00 0.00 0.00 65 1013.7
20260505080714 60 37 0.0 0.0 0.00 0.00 0.00 65 1013.5
20260505080210 60 40 0.0 0.0 0.00 0.00 0.00 64 1013.6
20260505075706 60 39 0.0 0.0 0.00 0.00 0.00 64 1013.6
20260505075203 61 39 0.0 0.0 0.00 0.00 0.00 63 1013.7
20260505074700 60 51 0.0 0.0 0.00 0.00 0.00 63 1013.7
20260505074157 60 41 0.0 0.0 0.00 0.00 0.00 63 1013.9
20260505073655 61 39 0.0 0.0 0.00 0.00 0.00 62 1013.6
20260505073153 61 37 0.0 0.0 0.00 0.00 0.00 62 1013.7
20260505072648 61 36 0.0 0.0 0.00 0.00 0.00 62 1013.5
20260505072145 61 7 0.9 0.9 0.00 0.00 0.00 61 1013.5
20260505071640 62 40 0.0 0.0 0.00 0.00 0.00 62 1013.5
20260505071138 62 38 0.0 0.9 0.00 0.00 0.00 61 1013.6
20260505070635 62 40 0.0 0.9 0.00 0.00 0.00 61 1013.7
20260505070131 62 40 0.0 0.0 0.00 0.00 0.00 60 1013.6
20260505065627 62 61 0.0 0.9 0.00 0.00 0.00 61 1013.6
20260505065124 62 38 0.0 0.0 0.00 0.00 0.00 61 1013.5
20260505064621 62 349 2.6 3.5 0.00 0.00 0.00 61 1013.7
20260505064120 62 27 0.9 0.9 0.00 0.00 0.00 61 1013.6
20260505063617 62 29 0.0 0.0 0.00 0.00 0.00 61 1013.7
20260505063112 61 36 0.0 0.0 0.00 0.00 0.00 61 1013.5
20260505062609 61 8 0.9 0.9 0.00 0.00 0.00 61 1013.7
20260505062106 61 29 0.9 1.7 0.00 0.00 0.00 61 1013.7
20260505061603 61 52 0.0 0.0 0.00 0.00 0.00 61 1013.7
20260505061101 60 37 0.0 0.0 0.00 0.00 0.00 62 1013.4
20260505060559 60 38 0.0 0.0 0.00 0.00 0.00 61 1013.6
20260505060055 60 32 0.0 0.9 0.00 0.00 0.00 61 1013.6
20260505055550 60 39 0.0 0.0 0.00 0.00 0.00 61 1013.7
20260505055048 61 37 0.0 0.0 0.00 0.00 0.00 60 1013.9
20260505054545 61 38 0.9 0.9 0.00 0.00 0.00 60 1013.6
20260505054043 60 333 0.9 1.7 0.00 0.00 0.00 61 1013.7
20260505053539 60 41 0.0 0.0 0.00 0.00 0.00 60 1013.5
20260505053036 61 42 0.0 0.0 0.00 0.00 0.00 59 1013.5
20260505052533 61 40 0.0 0.9 0.00 0.00 0.00 59 1013.5
20260505052031 61 52 0.0 0.0 0.00 0.00 0.00 59 1013.6
20260505051527 62 34 0.9 0.9 0.00 0.00 0.00 58 1013.9
20260505051026 62 47 0.0 0.9 0.00 0.00 0.00 58 1013.7
20260505050524 62 51 0.9 0.9 0.00 0.00 0.00 57 1013.7
20260505041451 63 58 0.9 1.7 0.00 0.00 0.00 54 1013.6
20260505040948 63 49 0.0 0.9 0.00 0.00 0.00 54 1013.6
20260505040446 62 52 0.9 0.9 0.00 0.00 0.00 54 1013.6
20260505035942 63 43 0.9 0.9 0.00 0.00 0.00 54 1013.6
20260505035438 63 38 0.9 0.9 0.00 0.00 0.00 54 1013.7
20260505034936 63 37 0.0 0.0 0.00 0.00 0.00 53 1013.4
20260505034432 63 42 0.0 0.9 0.00 0.00 0.00 52 1013.5
20260505033929 64 52 0.0 0.0 0.00 0.00 0.00 51 1013.4
20260505033426 63 117 1.7 2.6 0.00 0.00 0.00 50 1013.4
20260505032924 63 61 0.0 0.9 0.00 0.00 0.00 52 1013.4
20260505032421 64 65 0.0 0.0 0.00 0.00 0.00 50 1013.6
20260505031918 64 90 0.0 0.9 0.00 0.00 0.00 50 1013.6
20260505031414 63 22 0.9 0.9 0.00 0.00 0.00 51 1013.4
20260505030912 62 46 0.0 0.0 0.00 0.00 0.00 52 1013.6
20260505030407 63 35 0.0 0.0 0.00 0.00 0.00 52 1013.5
20260505025903 63 48 0.0 0.0 0.00 0.00 0.00 52 1013.5
20260505025401 63 50 0.0 0.0 0.00 0.00 0.00 51 1013.6
20260505024859 63 35 0.0 0.0 0.00 0.00 0.00 51 1013.6
20260505024356 63 44 0.0 0.0 0.00 0.00 0.00 51 1013.7
20260505023853 63 35 0.0 0.9 0.00 0.00 0.00 51 1013.9
20260505023350 62 53 0.9 0.9 0.00 0.00 0.00 52 1013.7
20260505022848 62 40 0.0 0.0 0.00 0.00 0.00 53 1014.0
20260505022344 61 43 0.0 0.0 0.00 0.00 0.00 54 1013.9
20260505021842 62 41 0.0 0.0 0.00 0.00 0.00 53 1013.7
20260505021338 63 40 0.0 0.0 0.00 0.00 0.00 52 1013.9
20260505020834 63 47 0.0 0.0 0.00 0.00 0.00 52 1014.0
20260505020330 63 40 0.9 0.9 0.00 0.00 0.00 51 1013.9
20260505015827 62 42 0.0 0.0 0.00 0.00 0.00 54 1013.6
20260505015324 62 40 0.0 0.0 0.00 0.00 0.00 54 1013.9
20260505014821 62 42 0.0 0.0 0.00 0.00 0.00 52 1013.9
20260505014318 62 21 0.0 0.0 0.00 0.00 0.00 51 1014.0
20260505013814 61 37 0.0 0.0 0.00 0.00 0.00 53 1013.9
20260505013312 60 41 0.0 0.0 0.00 0.00 0.00 59 1014.0
20260505012810 60 40 0.0 0.0 0.00 0.00 0.00 57 1014.0
20260505012308 60 41 0.0 0.0 0.00 0.00 0.00 58 1014.0
20260505011803 60 41 0.0 0.0 0.00 0.00 0.00 57 1014.0
20260505011300 60 38 0.0 0.0 0.00 0.00 0.00 57 1013.6
20260505010756 61 41 0.0 0.0 0.00 0.00 0.00 56 1013.7
20260505010252 62 39 0.0 0.0 0.00 0.00 0.00 54 1013.7
20260505005748 62 41 0.0 0.0 0.00 0.00 0.00 52 1013.4
20260505005246 62 40 0.0 0.0 0.00 0.00 0.00 52 1013.4
20260505004743 63 39 0.0 0.0 0.00 0.00 0.00 51 1013.5
20260505004239 64 41 0.0 0.0 0.00 0.00 0.00 51 1013.3
20260505003736 64 43 0.0 0.0 0.00 0.00 0.00 49 1013.5
20260505003234 65 42 0.0 0.0 0.00 0.00 0.00 48 1013.4
20260505002730 65 46 0.0 0.0 0.00 0.00 0.00 46 1013.2
20260505002228 66 42 0.0 0.0 0.00 0.00 0.00 47 1013.4
20260505001725 66 45 0.0 0.0 0.00 0.00 0.00 45 1013.3
20260505001223 66 47 0.0 0.0 0.00 0.00 0.00 44 1013.1
20260505000719 67 48 0.0 0.9 0.00 0.00 0.00 44 1013.1
20260505000218 67 41 0.0 0.0 0.00 0.00 0.00 43 1013.1
20260504235714 67 67 0.0 0.9 0.00 0.00 0.00 43 1013.0
20260504235210 68 42 0.0 0.0 0.00 0.00 0.00 44 1012.9
20260504234707 68 71 0.9 0.9 0.00 0.00 0.00 42 1013.1
20260504234204 69 43 0.0 0.0 0.00 0.00 0.00 42 1013.1
20260504233700 69 57 0.0 0.0 0.00 0.00 0.00 42 1012.8
20260504233156 69 41 0.9 1.7 0.00 0.00 0.00 40 1013.0
20260504232654 70 42 0.9 1.7 0.00 0.00 0.00 40 1013.0
20260504232151 70 55 0.9 1.7 0.00 0.00 0.00 40 1013.0
20260504231647 70 66 0.0 0.9 0.00 0.00 0.00 39 1012.9
20260504231144 71 36 0.9 0.9 0.00 0.00 0.00 39 1013.0
20260504230640 71 56 0.0 0.0 0.00 0.00 0.00 38 1012.8
20260504230139 71 150 1.7 1.7 0.00 0.00 0.00 38 1013.0
20260504225637 71 79 1.7 2.6 0.00 0.00 0.00 37 1013.0
20260504225132 71 81 0.9 1.7 0.00 0.00 0.00 38 1012.9
20260504224630 72 357 2.6 2.6 0.00 0.00 0.00 38 1012.7
20260504224126 72 39 0.9 0.9 0.00 0.00 0.00 40 1012.9
20260504223623 72 8 1.7 1.7 0.00 0.00 0.00 38 1012.8
20260504223119 72 78 1.7 1.7 0.00 0.00 0.00 37 1013.0
20260504222616 72 45 1.7 1.7 0.00 0.00 0.00 38 1013.1
20260504222114 72 55 1.7 2.6 0.00 0.00 0.00 37 1013.1
20260504221611 73 83 1.7 1.7 0.00 0.00 0.00 37 1013.1
20260504221108 73 352 2.6 2.6 0.00 0.00 0.00 38 1013.2
20260504220604 72 57 1.7 2.6 0.00 0.00 0.00 38 1013.2
20260504220101 72 181 3.5 3.5 0.00 0.00 0.00 37 1013.3
20260504215557 73 131 1.7 2.6 0.00 0.00 0.00 37 1013.1
20260504215055 74 332 1.7 1.7 0.00 0.00 0.00 39 1013.2
20260504214550 74 84 0.9 1.7 0.00 0.00 0.00 37 1013.3
20260504214047 73 31 1.7 1.7 0.00 0.00 0.00 38 1013.3
20260504213544 73 37 1.7 3.5 0.00 0.00 0.00 36 1013.4
20260504213041 73 95 1.7 1.7 0.00 0.00 0.00 40 1013.1
20260504212537 73 226 1.7 3.5 0.00 0.00 0.00 37 1013.3
20260504212034 73 44 0.9 1.7 0.00 0.00 0.00 38 1013.3
20260504211531 73 295 1.7 1.7 0.00 0.00 0.00 38 1013.4
20260504211028 73 274 0.9 1.7 0.00 0.00 0.00 39 1013.1
20260504210525 72 37 0.0 0.0 0.00 0.00 0.00 40 1013.2
20260504210022 73 225 4.3 6.1 0.00 0.00 0.00 37 1013.4
20260504205520 73 22 0.9 0.9 0.00 0.00 0.00 41 1013.3
20260504205018 73 266 1.7 2.6 0.00 0.00 0.00 41 1013.2
20260504204515 72 312 2.6 3.5 0.00 0.00 0.00 40 1013.4
20260504204014 72 347 2.6 3.5 0.00 0.00 0.00 38 1013.3
20260504203512 73 272 3.5 5.2 0.00 0.00 0.00 37 1013.3
20260504203009 72 71 0.0 0.9 0.00 0.00 0.00 38 1013.5
20260504202504 72 247 3.5 3.5 0.00 0.00 0.00 38 1013.5
20260504202001 72 188 2.6 3.5 0.00 0.00 0.00 37 1013.4
20260504201458 72 146 3.5 3.5 0.00 0.00 0.00 39 1013.6
20260504200956 72 267 2.6 3.5 0.00 0.00 0.00 38 1013.5